ANA1095 ROAH-RJTT

Flight info

Callsign ANA1095
Flight time N/A
Altitude 41000
Route AMAMI Y574 SHIBK Y57 SUKBO Y571 BILLY Y21 AKSEL
Aircraft B789/H-SDE1E2E3FGHIJ2J3J4J5M1RWXY/LB1D1

Departure

Time 2026-04-26 18:22
Airport Naha International Airport (ROAH)

Arrival

Time N/A
Airport Tokyo Haneda International Airport (RJTT)
Time Latitude Longitude Altitude Speed Heading
2026-04-26 18:15 26.20963 127.64737 29 ft 3 kts 176°
2026-04-26 18:17 26.20962 127.64737 29 ft 1 kts 176°
2026-04-26 18:17 26.20931 127.64739 27 ft 8 kts 176°
2026-04-26 18:17 26.20851 127.64744 27 ft 15 kts 177°
2026-04-26 18:18 26.20726 127.64749 26 ft 21 kts 177°
2026-04-26 18:18 26.20557 127.64756 25 ft 27 kts 178°
2026-04-26 18:18 26.20352 127.64764 26 ft 32 kts 178°
2026-04-26 18:18 26.20113 127.64776 26 ft 36 kts 177°
2026-04-26 18:19 26.19868 127.64790 26 ft 37 kts 177°
2026-04-26 18:19 26.19596 127.64807 26 ft 41 kts 176°
2026-04-26 18:19 26.19305 127.64813 26 ft 42 kts 179°
2026-04-26 18:19 26.19017 127.64828 25 ft 41 kts 176°
2026-04-26 18:20 26.18764 127.64839 29 ft 29 kts 177°
2026-04-26 18:20 26.18573 127.64849 25 ft 22 kts 185°
2026-04-26 18:20 26.18510 127.64774 24 ft 9 kts 275°
2026-04-26 18:20 26.18511 127.64750 23 ft 10 kts 275°
2026-04-26 18:21 26.18577 127.64644 25 ft 13 kts 348°
2026-04-26 18:21 26.18770 127.64633 28 ft 54 kts 358°
2026-04-26 18:21 26.19367 127.64605 27 ft 117 kts 358°
2026-04-26 18:21 26.20418 127.64558 120 ft 181 kts
2026-04-26 18:22 26.21754 127.64586 728 ft 196 kts
2026-04-26 18:22 26.23164 127.64475 1468 ft 209 kts 352°
2026-04-26 18:22 26.24710 127.64327 2191 ft 236 kts 355°
2026-04-26 18:22 26.26346 127.63848 3017 ft 249 kts 327°
2026-04-26 18:23 26.27764 127.62774 4185 ft 253 kts 330°
2026-04-26 18:23 26.29359 127.61887 5343 ft 259 kts 333°
2026-04-26 18:23 26.31060 127.61186 6460 ft 267 kts 354°
2026-04-26 18:23 26.32898 127.61544 7598 ft 273 kts 19°
2026-04-26 18:24 26.34504 127.62789 8449 ft 292 kts 45°
2026-04-26 18:24 26.35835 127.64521 9515 ft 297 kts 47°
2026-04-26 18:24 26.37188 127.66284 10514 ft 302 kts 46°
2026-04-26 18:24 26.38605 127.68055 11416 ft 309 kts 45°
2026-04-26 18:25 26.40067 127.69862 12248 ft 321 kts 45°
2026-04-26 18:25 26.41617 127.71795 12589 ft 348 kts 45°
2026-04-26 18:25 26.43292 127.73903 12855 ft 376 kts 45°
2026-04-26 18:25 26.45091 127.76169 13002 ft 403 kts 45°
2026-04-26 18:26 26.47015 127.78583 13072 ft 427 kts 45°
2026-04-26 18:26 26.49002 127.81084 13750 ft 432 kts 45°
2026-04-26 18:26 26.51004 127.83605 14351 ft 437 kts 45°
2026-04-26 18:26 26.53011 127.86128 14963 ft 441 kts 45°
2026-04-26 18:27 26.55061 127.88706 15580 ft 446 kts 45°
2026-04-26 18:27 26.57129 127.91311 16180 ft 450 kts 44°
2026-04-26 18:27 26.59215 127.93940 16768 ft 455 kts 44°
2026-04-26 18:27 26.61322 127.96597 17314 ft 459 kts 44°
2026-04-26 18:28 26.63449 127.99281 17841 ft 463 kts 44°
2026-04-26 18:28 26.65595 128.01991 18335 ft 467 kts 44°
2026-04-26 18:28 26.67755 128.04720 18804 ft 470 kts 44°
2026-04-26 18:28 26.69927 128.07465 19258 ft 473 kts 44°
2026-04-26 18:29 26.72123 128.10242 19706 ft 476 kts 44°
2026-04-26 18:29 26.74323 128.13027 20151 ft 479 kts 44°
2026-04-26 18:29 26.76536 128.15830 20570 ft 482 kts 44°
2026-04-26 18:29 26.78762 128.18651 20977 ft 485 kts 44°
2026-04-26 18:30 26.81001 128.21491 21382 ft 488 kts 44°
2026-04-26 18:30 26.83227 128.24315 21750 ft 490 kts 44°
2026-04-26 18:30 26.85487 128.27184 22136 ft 493 kts 44°
2026-04-26 18:30 26.87765 128.30078 22496 ft 496 kts 44°
2026-04-26 18:31 26.90048 128.32982 22832 ft 498 kts 44°
2026-04-26 18:31 26.92344 128.35904 23169 ft 501 kts 44°
2026-04-26 18:31 26.94655 128.38846 23491 ft 503 kts 44°
2026-04-26 18:31 26.96970 128.41794 23755 ft 505 kts 44°
2026-04-26 18:32 26.99296 128.44760 24019 ft 507 kts 43°
2026-04-26 18:32 27.01625 128.47732 24288 ft 509 kts 43°
2026-04-26 18:32 27.03965 128.50719 24547 ft 510 kts 43°
2026-04-26 18:32 27.06310 128.53715 24797 ft 512 kts 43°
2026-04-26 18:33 27.08661 128.56720 25041 ft 513 kts 43°
2026-04-26 18:33 27.11020 128.59737 25293 ft 515 kts 43°
2026-04-26 18:33 27.13383 128.62763 25541 ft 517 kts 43°
2026-04-26 18:33 27.15757 128.65804 25796 ft 518 kts 43°
2026-04-26 18:34 27.18137 128.68855 26029 ft 520 kts 43°
2026-04-26 18:34 27.20524 128.71917 26283 ft 522 kts 43°
2026-04-26 18:34 27.22110 128.73953 26464 ft 523 kts 43°
2026-04-26 18:34 27.24510 128.77035 26712 ft 525 kts 43°
2026-04-26 18:35 27.26913 128.80124 26949 ft 527 kts 43°
2026-04-26 18:35 27.29336 128.83239 27170 ft 529 kts 43°
2026-04-26 18:35 27.31751 128.86350 27572 ft 528 kts 43°
2026-04-26 18:35 27.34164 128.89461 27977 ft 526 kts 43°
2026-04-26 18:36 27.36569 128.92559 28416 ft 525 kts 43°
2026-04-26 18:36 27.38968 128.95653 28877 ft 523 kts 43°
2026-04-26 18:36 27.41364 128.98746 29363 ft 522 kts 43°
2026-04-26 18:36 27.43717 129.01786 29867 ft 521 kts 42°
2026-04-26 18:37 27.46089 129.04853 30343 ft 519 kts 42°
2026-04-26 18:37 27.48462 129.07922 30810 ft 517 kts 42°
2026-04-26 18:37 27.50818 129.10972 31295 ft 515 kts 41°
2026-04-26 18:37 27.53163 129.14011 31798 ft 513 kts 41°
2026-04-26 18:38 27.55504 129.17046 32331 ft 511 kts 41°
2026-04-26 18:38 27.57830 129.20063 32870 ft 509 kts 40°
2026-04-26 18:38 27.60148 129.23071 33428 ft 506 kts 40°
2026-04-26 18:38 27.62452 129.26066 33978 ft 504 kts 40°
2026-04-26 18:39 27.64748 129.29050 34437 ft 503 kts 40°
2026-04-26 18:39 27.67038 129.32027 34808 ft 503 kts 40°
2026-04-26 18:39 27.69336 129.35018 35196 ft 503 kts 40°
2026-04-26 18:39 27.71628 129.38004 35567 ft 503 kts 40°
2026-04-26 18:40 27.73920 129.40992 35938 ft 503 kts 40°
2026-04-26 18:40 27.76211 129.43981 36303 ft 503 kts 40°
2026-04-26 18:40 27.78502 129.46972 36678 ft 503 kts 40°
2026-04-26 18:40 27.80793 129.49965 37037 ft 503 kts 41°
2026-04-26 18:41 27.83053 129.52919 37378 ft 503 kts 41°
2026-04-26 18:41 27.85341 129.55913 37739 ft 503 kts 41°
2026-04-26 18:41 27.87629 129.58908 38087 ft 503 kts 41°
2026-04-26 18:41 27.89917 129.61905 38431 ft 503 kts 41°
2026-04-26 18:42 27.92202 129.64901 38751 ft 503 kts 41°
2026-04-26 18:42 27.94491 129.67904 38993 ft 504 kts 41°
2026-04-26 18:42 27.96787 129.70917 39190 ft 506 kts 42°
2026-04-26 18:42 27.99087 129.73939 39398 ft 508 kts 42°
2026-04-26 18:43 28.01395 129.76974 39616 ft 509 kts 42°
2026-04-26 18:43 28.03704 129.80012 39830 ft 510 kts 43°
2026-04-26 18:43 28.06024 129.83066 40038 ft 512 kts 43°
2026-04-26 18:43 28.08350 129.86130 40241 ft 513 kts 43°
2026-04-26 18:44 28.10678 129.89200 40449 ft 514 kts 43°
2026-04-26 18:44 28.13015 129.92284 40667 ft 516 kts 43°
2026-04-26 18:44 28.15352 129.95370 40866 ft 517 kts 43°
2026-04-26 18:44 28.17674 129.98437 40940 ft 521 kts 44°
2026-04-26 18:45 28.22400 130.04693 40933 ft 521 kts 44°
2026-04-26 18:45 28.27100 130.10918 40935 ft 519 kts 44°
2026-04-26 18:46 28.31798 130.17151 40938 ft 520 kts 44°
2026-04-26 18:46 28.36500 130.23401 40943 ft 520 kts 44°
2026-04-26 18:47 28.41207 130.29663 40947 ft 521 kts 44°
2026-04-26 18:47 28.45880 130.35892 40951 ft 521 kts 44°
2026-04-26 18:48 28.50584 130.42169 40953 ft 522 kts 45°
2026-04-26 18:48 28.55301 130.48475 40953 ft 523 kts 45°
2026-04-26 18:49 28.60023 130.54797 40948 ft 525 kts 45°
2026-04-26 18:49 28.64758 130.61146 40949 ft 526 kts 45°
2026-04-26 18:50 28.69491 130.67503 40950 ft 527 kts 45°
2026-04-26 18:50 28.74202 130.73838 40946 ft 527 kts 45°
2026-04-26 18:51 28.78945 130.80227 40943 ft 529 kts 45°
2026-04-26 18:51 28.83698 130.86640 40944 ft 529 kts 45°
2026-04-26 18:52 28.88450 130.93061 40943 ft 529 kts 46°
2026-04-26 18:52 28.93195 130.99482 40943 ft 529 kts 46°
2026-04-26 18:53 28.97936 131.05908 40941 ft 529 kts 46°
2026-04-26 18:53 29.02687 131.12357 40935 ft 530 kts 46°
2026-04-26 18:54 29.07441 131.18821 40935 ft 531 kts 46°
2026-04-26 18:54 29.12195 131.25295 40920 ft 531 kts 46°
2026-04-26 18:55 29.16944 131.31773 40928 ft 531 kts 46°
2026-04-26 18:55 29.21697 131.38265 40928 ft 532 kts 46°
2026-04-26 18:56 29.26434 131.44748 40929 ft 533 kts 46°
2026-04-26 18:56 29.31194 131.51270 40931 ft 534 kts 46°
2026-04-26 18:57 29.35159 131.56713 40923 ft 535 kts 47°
2026-04-26 18:57 29.40234 131.64871 40917 ft 539 kts 53°
2026-04-26 18:58 29.44405 131.72020 40920 ft 539 kts 53°
2026-04-26 18:58 29.48589 131.79159 40921 ft 539 kts 53°
2026-04-26 18:59 29.52728 131.86265 40921 ft 539 kts 53°
2026-04-26 18:59 29.56911 131.93436 40919 ft 540 kts 54°
2026-04-26 19:00 29.61079 132.00610 40916 ft 540 kts 54°
2026-04-26 19:00 29.65265 132.07793 40920 ft 539 kts 51°
2026-04-26 19:01 29.69979 132.14474 40912 ft 538 kts 47°
2026-04-26 19:01 29.74738 132.21133 40915 ft 539 kts 48°
2026-04-26 19:02 29.79483 132.27813 40907 ft 539 kts 48°
2026-04-26 19:02 29.83435 132.33362 40906 ft 540 kts 48°
2026-04-26 19:03 29.88998 132.41211 40905 ft 541 kts 48°
2026-04-26 19:03 29.93767 132.47939 40901 ft 542 kts 48°
2026-04-26 19:04 29.98499 132.54636 40896 ft 542 kts 48°
2026-04-26 19:04 30.03260 132.61378 40897 ft 542 kts 48°
2026-04-26 19:05 30.10390 132.71501 40901 ft 541 kts 48°
2026-04-26 19:06 30.15133 132.78248 40897 ft 541 kts 49°
2026-04-26 19:06 30.19868 132.84996 40893 ft 541 kts 49°
2026-04-26 19:07 30.24609 132.91763 40892 ft 542 kts 49°
2026-04-26 19:07 30.29362 132.98560 40894 ft 544 kts 49°
2026-04-26 19:08 30.34125 133.05382 40889 ft 546 kts 49°
2026-04-26 19:08 30.38863 133.12180 40887 ft 545 kts 49°
2026-04-26 19:09 30.43619 133.19016 40886 ft 545 kts 49°
2026-04-26 19:09 30.48380 133.25869 40882 ft 546 kts 49°
2026-04-26 19:10 30.53137 133.32730 40878 ft 546 kts 49°
2026-04-26 19:10 30.57891 133.39599 40882 ft 545 kts 49°
2026-04-26 19:11 30.62636 133.46466 40871 ft 546 kts 49°
2026-04-26 19:11 30.67388 133.53356 40870 ft 545 kts 49°
2026-04-26 19:12 30.72098 133.60196 40871 ft 546 kts 49°
2026-04-26 19:12 30.76841 133.67097 40867 ft 546 kts 50°
2026-04-26 19:13 30.81585 133.74010 40868 ft 546 kts 50°
2026-04-26 19:13 30.86325 133.80926 40872 ft 546 kts 50°
2026-04-26 19:14 30.91054 133.87838 40869 ft 545 kts 50°
2026-04-26 19:14 30.95778 133.94755 40866 ft 546 kts 50°
2026-04-26 19:15 31.00475 134.01645 40860 ft 546 kts 50°
2026-04-26 19:15 31.05201 134.08589 40858 ft 546 kts 50°
2026-04-26 19:16 31.09917 134.15531 40859 ft 546 kts 50°
2026-04-26 19:16 31.14632 134.22484 40858 ft 546 kts 50°
2026-04-26 19:17 31.19346 134.29448 40856 ft 546 kts 50°
2026-04-26 19:17 31.24062 134.36427 40857 ft 546 kts 50°
2026-04-26 19:18 31.28774 134.43413 40851 ft 546 kts 50°
2026-04-26 19:18 31.33474 134.50394 40850 ft 546 kts 50°
2026-04-26 19:19 31.38173 134.57386 40845 ft 546 kts 51°
2026-04-26 19:19 31.42840 134.64342 40839 ft 547 kts 51°
2026-04-26 19:20 31.47540 134.71361 40844 ft 547 kts 51°
2026-04-26 19:20 31.52240 134.78393 40836 ft 548 kts 51°
2026-04-26 19:21 31.56939 134.85435 40834 ft 549 kts 51°
2026-04-26 19:21 31.61643 134.92500 40833 ft 549 kts 51°
2026-04-26 19:22 31.65541 134.98362 40834 ft 548 kts 51°
2026-04-26 19:22 31.70227 135.05422 40825 ft 548 kts 51°
2026-04-26 19:23 31.75191 135.12183 40827 ft 547 kts 46°
2026-04-26 19:23 31.80297 135.18825 40820 ft 547 kts 47°
2026-04-26 19:24 31.85387 135.25468 40821 ft 547 kts 47°
2026-04-26 19:24 31.93023 135.35449 40821 ft 547 kts 47°
2026-04-26 19:25 31.97254 135.40990 40813 ft 548 kts 47°
2026-04-26 19:25 32.03187 135.48775 40811 ft 548 kts 47°
2026-04-26 19:26 32.08281 135.55473 40813 ft 548 kts 47°
2026-04-26 19:26 32.13370 135.62176 40812 ft 548 kts 47°
2026-04-26 19:27 32.18452 135.68883 40804 ft 548 kts 47°
2026-04-26 19:27 32.23534 135.75601 40803 ft 548 kts 47°
2026-04-26 19:28 32.28611 135.82324 40801 ft 549 kts 48°
2026-04-26 19:28 32.33662 135.89026 40802 ft 549 kts 48°
2026-04-26 19:29 32.38745 135.95783 40801 ft 548 kts 48°
2026-04-26 19:29 32.43820 136.02540 40798 ft 550 kts 48°
2026-04-26 19:30 32.48896 136.09301 40797 ft 550 kts 48°
2026-04-26 19:30 32.53129 136.14949 40800 ft 550 kts 48°
2026-04-26 19:31 32.59057 136.22875 40795 ft 551 kts 48°
2026-04-26 19:31 32.64132 136.29673 40789 ft 551 kts 49°
2026-04-26 19:32 32.69229 136.36514 40792 ft 551 kts 49°
2026-04-26 19:32 32.74283 136.43309 40796 ft 552 kts 49°
2026-04-26 19:33 32.79378 136.50173 40793 ft 552 kts 49°
2026-04-26 19:33 32.84439 136.57004 40794 ft 553 kts 49°
2026-04-26 19:34 32.89530 136.63888 40784 ft 553 kts 49°
2026-04-26 19:34 32.94599 136.70750 40783 ft 552 kts 49°
2026-04-26 19:35 32.99683 136.77637 40786 ft 552 kts 49°
2026-04-26 19:35 33.04743 136.84512 40785 ft 553 kts 49°
2026-04-26 19:36 33.08977 136.90269 40782 ft 554 kts 49°
2026-04-26 19:36 33.14894 136.98336 40786 ft 554 kts 49°
2026-04-26 19:37 33.19950 137.05240 40786 ft 555 kts 49°
2026-04-26 19:37 33.25051 137.12221 40785 ft 556 kts 49°
2026-04-26 19:38 33.30149 137.19215 40793 ft 558 kts 50°
2026-04-26 19:38 33.35231 137.26197 40785 ft 559 kts 50°
2026-04-26 19:39 33.40325 137.33212 40785 ft 560 kts 50°
2026-04-26 19:39 33.45452 137.40285 40784 ft 561 kts 50°
2026-04-26 19:40 33.50539 137.47316 40781 ft 561 kts 50°
2026-04-26 19:40 33.55661 137.54412 40784 ft 560 kts 50°
2026-04-26 19:41 33.60693 137.61507 40788 ft 558 kts 57°
2026-04-26 19:41 33.63974 137.68177 40783 ft 556 kts 64°
2026-04-26 19:42 33.68309 137.77680 40782 ft 557 kts 64°
2026-04-26 19:42 33.72025 137.85782 40784 ft 557 kts 64°
2026-04-26 19:43 33.75770 137.94010 40791 ft 559 kts 64°
2026-04-26 19:43 33.79486 138.02165 40786 ft 559 kts 65°
2026-04-26 19:44 33.83225 138.10409 40790 ft 560 kts 65°
2026-04-26 19:44 33.86933 138.18592 40789 ft 561 kts 65°
2026-04-26 19:45 33.90675 138.26875 40788 ft 562 kts 65°
2026-04-26 19:45 33.94372 138.35137 40786 ft 562 kts 66°
2026-04-26 19:46 33.98068 138.43467 40792 ft 562 kts 65°
2026-04-26 19:46 34.01755 138.51755 40797 ft 562 kts 66°
2026-04-26 19:47 34.04816 138.58680 40801 ft 563 kts 66°
2026-04-26 19:47 34.09137 138.68448 40802 ft 565 kts 66°
2026-04-26 19:48 34.12831 138.76836 40809 ft 566 kts 66°
2026-04-26 19:48 34.16528 138.85239 40809 ft 567 kts 66°
2026-04-26 19:49 34.20215 138.93649 40820 ft 567 kts 66°
2026-04-26 19:49 34.23903 139.02075 40822 ft 567 kts 66°
2026-04-26 19:50 34.27555 139.10436 40163 ft 565 kts 67°
2026-04-26 19:50 34.29232 139.14721 39383 ft 562 kts 74°
2026-04-26 19:50 34.30736 139.19088 38659 ft 563 kts 75°
2026-04-26 19:51 34.32234 139.23463 37878 ft 562 kts 75°
2026-04-26 19:51 34.33739 139.27829 37076 ft 562 kts 75°
2026-04-26 19:51 34.35249 139.32188 36252 ft 561 kts 74°
2026-04-26 19:51 34.36749 139.36542 35421 ft 560 kts 74°
2026-04-26 19:52 34.38244 139.40908 34609 ft 559 kts 74°
2026-04-26 19:52 34.39734 139.45257 33776 ft 558 kts 73°
2026-04-26 19:52 34.41219 139.49585 32779 ft 557 kts 73°
2026-04-26 19:52 34.42702 139.53918 31726 ft 557 kts 72°
2026-04-26 19:53 34.44178 139.58245 30727 ft 556 kts 72°
2026-04-26 19:53 34.45647 139.62545 30056 ft 547 kts 71°
2026-04-26 19:53 34.47156 139.66627 28002 ft 524 kts 63°
2026-04-26 19:53 34.49195 139.70265 25896 ft 514 kts 51°
2026-04-26 19:54 34.51608 139.73348 24033 ft 495 kts 41°
2026-04-26 19:54 34.54304 139.75837 22048 ft 484 kts 31°
2026-04-26 19:54 34.57157 139.77935 20633 ft 473 kts 31°
2026-04-26 19:54 34.59909 139.79961 19946 ft 450 kts 31°
2026-04-26 19:55 34.62570 139.81919 19857 ft 452 kts 31°
2026-04-26 19:55 34.65091 139.84241 19859 ft 455 kts 45°
2026-04-26 19:55 34.67081 139.87134 19858 ft 452 kts 59°
2026-04-26 19:55 34.68532 139.90551 19857 ft 448 kts 72°
2026-04-26 19:56 34.69466 139.94094 19848 ft 447 kts 72°
2026-04-26 19:56 34.70911 139.97438 19645 ft 446 kts 57°
2026-04-26 19:56 34.72971 140.00275 18907 ft 449 kts 41°
2026-04-26 19:56 34.75553 140.02352 18364 ft 443 kts 25°
2026-04-26 19:57 34.78429 140.03633 17735 ft 438 kts 13°
2026-04-26 19:57 34.81407 140.04229 17124 ft 430 kts
2026-04-26 19:57 34.84374 140.04128 16514 ft 422 kts 350°
2026-04-26 19:57 34.87216 140.03400 15877 ft 414 kts 342°
2026-04-26 19:58 34.89990 140.02501 15236 ft 411 kts 343°
2026-04-26 19:58 34.92717 140.01708 14931 ft 402 kts 345°
2026-04-26 19:58 34.95361 140.01014 14867 ft 367 kts 345°
2026-04-26 19:58 34.97746 140.00358 14079 ft 338 kts 344°
2026-04-26 19:59 34.99992 139.99699 13124 ft 330 kts 344°
2026-04-26 19:59 35.02202 139.99059 12261 ft 324 kts 345°
2026-04-26 19:59 35.04381 139.98448 11405 ft 318 kts 345°
2026-04-26 19:59 35.06522 139.97847 10558 ft 313 kts 345°
2026-04-26 20:00 35.08630 139.97248 9764 ft 309 kts 345°
2026-04-26 20:00 35.10710 139.96655 8828 ft 306 kts 345°
2026-04-26 20:00 35.12771 139.96069 7897 ft 304 kts 346°
2026-04-26 20:00 35.14808 139.95492 7086 ft 295 kts 346°
2026-04-26 20:01 35.16814 139.94922 6241 ft 294 kts 346°
2026-04-26 20:01 35.18792 139.94358 5445 ft 289 kts 346°
2026-04-26 20:01 35.20737 139.93805 4612 ft 286 kts 347°
2026-04-26 20:01 35.22685 139.93251 4018 ft 286 kts 348°
2026-04-26 20:02 35.24548 139.92720 3973 ft 264 kts 348°
2026-04-26 20:02 35.26273 139.92227 3971 ft 248 kts 348°
2026-04-26 20:02 35.27913 139.91762 3995 ft 233 kts 348°
2026-04-26 20:02 35.28921 139.91473 3994 ft 217 kts 348°
2026-04-26 20:03 35.30768 139.90945 3974 ft 193 kts 348°
2026-04-26 20:03 35.32058 139.90579 3974 ft 189 kts 349°
2026-04-26 20:03 35.33336 139.90214 3981 ft 187 kts 349°
2026-04-26 20:03 35.34613 139.89852 3962 ft 203 kts 349°
2026-04-26 20:04 35.36133 139.89423 3998 ft 239 kts 348°
2026-04-26 20:04 35.37790 139.88945 4001 ft 248 kts 349°
2026-04-26 20:04 35.39480 139.88460 3998 ft 250 kts 348°
2026-04-26 20:04 35.41176 139.87974 3999 ft 249 kts 349°
2026-04-26 20:05 35.42749 139.87520 4003 ft 218 kts 349°
2026-04-26 20:05 35.44212 139.87110 3886 ft 215 kts 351°
2026-04-26 20:05 35.45638 139.86643 3621 ft 210 kts 345°
2026-04-26 20:05 35.46802 139.85628 3647 ft 211 kts 313°
2026-04-26 20:06 35.47913 139.84532 3682 ft 200 kts 340°
2026-04-26 20:06 35.49223 139.84115 3559 ft 196 kts 344°
2026-04-26 20:06 35.50453 139.83329 2810 ft 207 kts 332°
2026-04-26 20:06 35.51656 139.82443 2264 ft 191 kts 333°
2026-04-26 20:07 35.52739 139.81621 950 ft 191 kts 331°
2026-04-26 20:07 35.53681 139.80640 714 ft 159 kts 322°
2026-04-26 20:07 35.54687 139.79865 1267 ft 174 kts 334°
2026-04-26 20:07 35.55830 139.79487 2149 ft 171 kts 12°
2026-04-26 20:08 35.56820 139.80291 3290 ft 184 kts 51°
2026-04-26 20:08 35.57459 139.81826 3911 ft 217 kts 85°
2026-04-26 20:08 35.57357 139.83673 3997 ft 225 kts 98°
2026-04-26 20:08 35.57050 139.85529 3965 ft 222 kts 120°
2026-04-26 20:09 35.55922 139.86839 3991 ft 229 kts 145°
2026-04-26 20:09 35.54533 139.87837 4003 ft 231 kts 149°
2026-04-26 20:09 35.53130 139.88767 4001 ft 229 kts 150°
2026-04-26 20:09 35.51719 139.89696 4005 ft 235 kts 150°
2026-04-26 20:10 35.50736 139.90339 4003 ft 246 kts 150°
2026-04-26 20:10 35.49214 139.91332 4002 ft 248 kts 150°
2026-04-26 20:10 35.47678 139.92348 4005 ft 250 kts 150°
2026-04-26 20:10 35.46158 139.93368 4003 ft 251 kts 150°
2026-04-26 20:11 35.44632 139.94394 4001 ft 248 kts 150°
2026-04-26 20:11 35.43112 139.95417 4000 ft 251 kts 150°
2026-04-26 20:11 35.41585 139.96453 3999 ft 251 kts 150°
2026-04-26 20:12 35.38554 139.98536 3996 ft 250 kts 150°
2026-04-26 20:12 35.37062 139.99568 3985 ft 237 kts 150°
2026-04-26 20:12 35.35654 140.00410 3972 ft 215 kts 159°
2026-04-26 20:12 35.34262 140.00805 3962 ft 203 kts 172°
2026-04-26 20:13 35.32870 140.00781 3991 ft 199 kts 185°
2026-04-26 20:13 35.31525 140.00347 3987 ft 201 kts 198°
2026-04-26 20:13 35.30266 139.99505 4015 ft 224 kts 211°
2026-04-26 20:13 35.29030 139.98185 4097 ft 236 kts 225°
2026-04-26 20:14 35.28320 139.96124 4152 ft 300 kts 255°
2026-04-26 20:14 35.27874 139.93390 4221 ft 352 kts 255°
2026-04-26 20:14 35.27359 139.90347 4313 ft 355 kts 255°
2026-04-26 20:14 35.26882 139.87501 3959 ft 346 kts 255°
2026-04-26 20:15 35.26658 139.84530 4041 ft 338 kts 275°
2026-04-26 20:15 35.27522 139.82039 3031 ft 313 kts 304°
2026-04-26 20:15 35.29317 139.80306 824 ft 368 kts 335°
2026-04-26 20:15 35.31761 139.79186 2638 ft 334 kts 346°
2026-04-26 20:16 35.33951 139.78648 4895 ft 315 kts 356°
2026-04-26 20:16 35.36158 139.78841 4008 ft 328 kts 12°
2026-04-26 20:16 35.38346 139.79092 3816 ft 307 kts
2026-04-26 20:16 35.40444 139.78871 3722 ft 296 kts 350°
2026-04-26 20:17 35.42404 139.78422 3654 ft 273 kts 359°
2026-04-26 20:17 35.44183 139.78542 3216 ft 245 kts 14°
2026-04-26 20:17 35.45811 139.79019 1738 ft 240 kts 20°
2026-04-26 20:17 35.47338 139.79625 658 ft 214 kts 18°
2026-04-26 20:18 35.48670 139.80026 110 ft 190 kts 12°
2026-04-26 20:18 35.49959 139.80009 428 ft 165 kts 347°
2026-04-26 20:18 35.51047 139.79508 310 ft 158 kts 347°
2026-04-26 20:18 35.52251 139.79584 383 ft 173 kts
2026-04-26 20:19 35.53205 139.79141 217 ft 142 kts 318°
2026-04-26 20:19 35.53979 139.78338 31 ft 140 kts 337°
2026-04-26 20:19 35.54056 139.78297 30 ft 134 kts 343°